EW8320 Weather Reports


Display with metric or nautical units.
time (UTC)temp
F
wind
direction
speed
MPH
gust
MPH
rain 1hr
in
rain 24hr
in
rain mn
in
humidity
%
barometer
mb
20260508135815 45 248 0.0 0.0 0.00 0.00 0.00 100 1020.6
20260508134816 45 259 0.0 0.0 0.00 0.00 0.00 100 1020.5
20260508133814 48 250 0.0 0.0 0.00 0.00 0.00 100 1020.4
20260508132816 45 255 0.0 0.0 0.00 0.00 0.00 100 1020.0
20260508131815 41 265 0.0 0.0 0.00 0.00 0.00 100 1019.9
20260508130814 40 263 0.0 0.0 0.00 0.00 0.00 100 1019.7
20260508125816 41 243 0.0 0.0 0.00 0.00 0.00 100 1019.8
20260508124815 42 261 0.0 0.0 0.00 0.00 0.00 100 1019.7
20260508123814 43 271 0.0 0.0 0.00 0.00 0.00 100 1019.7
20260508122813 45 255 0.0 0.0 0.00 0.00 0.00 100 1019.7
20260508121855 44 259 0.0 0.0 0.00 0.00 0.00 100 1019.7
20260508115917 43 280 0.0 0.0 0.00 0.00 0.00 100 1019.7
20260508114917 44 272 0.0 0.0 0.00 0.00 0.00 100 1019.7
20260508113916 47 265 0.0 0.0 0.00 0.00 0.00 100 1019.5
20260508112916 47 288 0.0 0.0 0.00 0.00 0.00 100 1019.5
20260508111915 47 251 0.0 0.0 0.00 0.00 0.00 100 1019.5
20260508111817 47 260 0.0 0.0 0.00 0.00 0.00 100 1019.5
20260508110915 42 260 0.0 0.0 0.00 0.00 0.00 100 1019.5
20260508105916 41 272 0.0 0.0 0.00 0.00 0.00 100 1019.4
20260508104915 36 259 0.0 0.0 0.00 0.00 0.00 100 1019.3
20260508104014 33 256 0.0 0.0 0.00 0.00 0.00 81 1019.3
20260508103016 34 292 0.0 0.0 0.00 0.00 0.00 80 1019.5
20260508102015 34 255 0.0 0.0 0.00 0.00 0.00 78 1019.5
20260508101032 40 276 0.0 0.0 0.00 0.00 0.00 69 1019.7
20260508100126 43 283 0.0 0.0 0.00 0.00 0.00 66 1019.5
20260508071716 43 275 0.0 0.0 0.00 0.00 0.00 65 1019.7
20260508065720 44 268 0.0 0.0 0.00 0.00 0.00 63 1019.7
20260508064818 44 281 0.0 0.0 0.00 0.00 0.00 63 1019.5
20260508064720 44 277 0.0 0.0 0.00 0.00 0.00 63 1019.5
20260508063720 45 233 0.0 0.0 0.00 0.00 0.00 60 1019.5
20260508062720 46 273 0.0 0.0 0.00 0.00 0.00 60 1019.5
20260508061818 46 268 0.0 0.0 0.00 0.00 0.00 59 1019.5
20260508060822 46 244 0.0 0.0 0.00 0.00 0.00 57 1019.5
20260508054819 48 254 0.0 0.0 0.00 0.00 0.00 54 1019.5
20260508053822 48 262 0.0 0.0 0.00 0.00 0.00 54 1019.4
20260508052920 48 239 0.0 0.0 0.00 0.00 0.00 55 1019.6
20260508051920 48 243 0.0 0.0 0.00 0.00 0.00 55 1019.6
20260508050919 47 270 0.0 0.0 0.00 0.00 0.00 56 1019.6
20260508044919 53 266 0.0 0.0 0.00 0.00 0.00 93 1019.4
20260508043921 56 225 0.0 0.0 0.00 0.00 0.00 100 1019.4
20260508042920 57 292 0.0 0.0 0.00 0.00 0.00 100 1019.6
20260508041920 54 315 0.0 0.0 0.00 0.00 0.00 100 1019.5
20260508040921 47 315 0.0 0.0 0.00 0.00 0.00 59 1019.5
20260508040020 48 315 0.0 0.0 0.00 0.00 0.00 55 1019.4
20260508035021 49 315 0.0 0.0 0.00 0.00 0.00 54 1019.3
20260508034022 49 315 0.0 0.0 0.00 0.00 0.00 53 1019.3
20260508033121 50 315 0.0 0.0 0.00 0.00 0.00 51 1019.2
20260508032119 51 315 0.0 0.0 0.00 0.00 0.00 48 1019.2
20260508031119 53 315 0.0 0.0 0.00 0.00 0.00 43 1019.0
20260508030127 54 356 0.0 0.0 0.00 0.00 0.00 42 1018.9
20260508024319 56 22 0.0 0.0 0.00 0.00 0.00 40 1018.7
20260508023320 57 22 0.0 0.0 0.00 0.00 0.00 37 1018.6
20260508022419 58 321 0.0 0.0 0.00 0.00 0.00 37 1018.5
20260508021420 59 337 0.0 0.0 0.00 0.00 0.00 34 1018.5
20260508020421 61 360 0.0 0.0 0.00 0.00 0.00 30 1018.5
20260508015420 62 85 0.0 0.0 0.00 0.00 0.00 28 1018.4
20260508014420 63 76 0.0 0.0 0.00 0.00 0.00 28 1018.3
20260508013421 64 67 0.0 0.0 0.00 0.00 0.00 27 1018.4
20260508012421 65 79 0.0 0.0 0.00 0.00 0.00 26 1018.3
20260508011420 65 83 0.0 0.0 0.00 0.00 0.00 26 1018.2
20260508010518 65 92 0.0 0.0 0.00 0.00 0.00 25 1018.3
20260508005519 66 89 0.0 0.0 0.00 0.00 0.00 28 1018.4
20260508005418 66 99 0.0 0.0 0.00 0.00 0.00 28 1018.3
20260508003421 66 73 0.0 0.0 0.00 0.00 0.00 27 1018.5
20260508002419 67 90 0.0 0.0 0.00 0.00 0.00 28 1018.5
20260508001421 67 79 0.0 0.0 0.00 0.00 0.00 29 1018.5
20260508001320 67 87 0.0 0.0 0.00 0.00 0.00 29 1018.5
20260507235320 67 65 0.0 0.0 0.00 0.00 0.00 30 1018.3
20260507234418 67 64 0.0 0.0 0.00 0.00 0.00 31 1018.4
20260507233420 67 96 0.0 0.0 0.00 0.00 0.00 30 1018.4
20260507232420 67 86 0.0 0.0 0.00 0.00 0.00 31 1018.5
20260507231419 67 90 0.0 0.0 0.00 0.00 0.00 30 1018.6
20260507230420 66 54 0.0 0.0 0.00 0.00 0.00 30 1018.6
20260507225420 66 84 0.0 0.0 0.00 0.00 0.00 31 1018.7
20260507224519 67 96 0.0 0.0 0.00 0.00 0.00 31 1018.7
20260507223519 67 95 0.0 0.0 0.00 0.00 0.00 31 1018.9
20260507223421 67 100 0.0 0.0 0.00 0.00 0.00 31 1018.8
20260507222519 67 78 0.0 0.0 0.00 0.00 0.00 32 1018.9
20260507221521 66 62 0.0 0.0 0.00 0.00 0.00 31 1019.0
20260507220521 66 84 0.0 0.0 0.00 0.00 0.00 31 1019.1
20260507215521 66 48 0.0 0.0 0.00 0.00 0.00 32 1019.2
20260507214519 65 80 0.0 0.0 0.00 0.00 0.00 31 1019.2
20260507212520 66 85 0.0 0.0 0.00 0.00 0.00 31 1019.4
20260507211519 65 77 0.0 0.0 0.00 0.00 0.00 32 1019.5
20260507210521 64 97 0.0 0.0 0.00 0.00 0.00 33 1019.4
20260507205521 64 75 0.0 0.0 0.00 0.00 0.00 33 1019.7
20260507204618 65 87 0.0 0.0 0.00 0.00 0.00 34 1019.6
20260507204519 65 78 0.0 0.0 0.00 0.00 0.00 34 1019.8
20260507202521 64 106 0.0 0.0 0.00 0.00 0.00 36 1020.0
20260507201520 64 74 0.0 0.0 0.00 0.00 0.00 38 1019.9
20260507201419 64 98 0.0 0.0 0.00 0.00 0.00 38 1019.9
20260507200420 63 95 0.0 0.0 0.00 0.00 0.00 39 1020.0
20260507194419 63 90 0.0 0.0 0.00 0.00 0.00 42 1020.0
20260507193518 63 104 0.0 0.0 0.00 0.00 0.00 44 1020.0
20260507192522 62 75 0.0 0.0 0.00 0.00 0.00 43 1020.1
20260507191519 62 91 0.0 0.0 0.00 0.00 0.00 45 1020.2
20260507190536 62 90 0.0 0.0 0.00 0.00 0.00 46 1020.2
20260507185521 61 101 0.0 0.0 0.00 0.00 0.00 45 1020.3
20260507184518 61 41 0.0 0.0 0.00 0.00 0.00 45 1020.4
20260507183522 60 102 0.0 0.0 0.00 0.00 0.00 46 1020.4
20260507182522 60 77 0.0 0.0 0.00 0.00 0.00 48 1020.6
20260507181419 60 21 0.0 0.0 0.00 0.00 0.00 46 1020.6
20260507175520 59 91 0.0 0.0 0.00 0.00 0.00 45 1020.5
20260507174618 59 90 0.0 0.0 0.00 0.00 0.00 46 1020.7
20260507171620 60 357 0.0 0.0 0.00 0.00 0.00 45 1020.5
20260507170620 59 65 0.0 0.0 0.00 0.00 0.00 47 1020.6
20260507165620 59 37 0.0 0.0 0.00 0.00 0.00 47 1020.5
20260507164638 58 202 0.0 0.0 0.00 0.00 0.00 49 1020.6
20260507163620 57 157 0.0 0.0 0.00 0.00 0.00 51 1020.8
20260507162620 57 113 0.0 0.0 0.00 0.00 0.00 51 1020.7
20260507161719 56 226 0.0 0.0 0.00 0.00 0.00 52 1020.9
20260507160726 56 186 0.0 0.0 0.00 0.00 0.00 54 1020.9
20260507154920 60 218 0.0 0.0 0.00 0.00 0.00 100 1021.0
20260507153920 60 236 0.0 0.0 0.00 0.00 0.00 100 1020.8
20260507152926 59 265 0.0 0.0 0.00 0.00 0.00 98 1021.0
20260507152021 54 226 0.0 0.0 0.00 0.00 0.00 100 1020.8
20260507151118 57 254 0.0 0.0 0.00 0.00 0.00 100 1020.9
20260507150124 54 276 0.0 0.0 0.00 0.00 0.00 100 1020.8
20260507145120 54 229 0.0 0.0 0.00 0.00 0.00 95 1020.7
20260507144120 54 264 0.0 0.0 0.00 0.00 0.00 100 1020.6
20260507143120 54 246 0.0 0.0 0.00 0.00 0.00 100 1020.6